Starlink 30225

operational
NORAD ID: 57449 Int'l Des: 2023-105 Owner: SPXS Country: US Constellation: starlink
LEOCIRCULAR

关于 Starlink 30225

正在加载描述...

实时位置

正在加载3D地球...

即将过境

高度历史

Altitude vs Time

uPlot chart will show altitude changes over time

两行轨道根数

1 57449U 23105V 25304.85268770 .00000634 00000-0 61982-4 0 9990
2 57449 43.0058 241.4134 0001310 268.1493 91.9199 15.02534115126248
Epoch: Oct 31, 2025 • Age: 16 hours

当前状态

高度 561.1 km
速度 7.58 km/s
星下点 -12.82°S, 2.3°W
发射日期 Jul 24, 2023
运行时间 2.2 years
类型 internet

技术详情

分类 Payload
质量 730.00 kg
干质量 700.00 kg
总质量 730.00 kg
长度 0.30 m
直径 4.10 m
跨度 29.00 m
形状 Box + pan
制造商 SPXS
平台类型 Starlink V2M
阶段状态 In Orbit
所有者/国家 SPXS/US

大型星座

Loading constellations...